When you browse on this site, cookies collect data to enhance your experience and personalize the content and advertising you see.
Visit our Privacy Policy to learn more. By continuing to use the site, you agree to this use of cookies and data.

Hourly Weather Prutz

Today, 7 August, Friday

Time Temperature Precipitation Wind Pressure Humidity
00:00 +11°C° 0 mm 0 mps 637 mmHg 96%
01:00 +11°C° 0 mm 0 mps 637 mmHg 96%
02:00 +11°C° 0 mm 0 mps 637 mmHg 96%
03:00 +11°C° 0 mm 0 mps 637 mmHg 95%
04:00 +10°C° 0 mm 0 mps 637 mmHg 95%
05:00 +12°C° 0 mm 0 mps 638 mmHg 91%
06:00 +14°C° 0 mm 0 mps 638 mmHg 88%
07:00 +16°C° 0 mm 0 mps 639 mmHg 83%
08:00 +19°C° 0 mm 1 mps 640 mmHg 75%
09:00 +21°C° 0 mm 1 mps 640 mmHg 67%
10:00 +23°C° 0 mm 1 mps 640 mmHg 59%
11:00 +23°C° 0 mm 2 mps 641 mmHg 54%
12:00 +24°C° 0 mm 2 mps 641 mmHg 49%
13:00 +25°C° 0 mm 2 mps 641 mmHg 44%
14:00 +25°C° 0.1 mm 2 mps 641 mmHg 46%
15:00 +24°C° 0.1 mm 2 mps 641 mmHg 48%
16:00 +24°C° 0.1 mm 2 mps 641 mmHg 51%
17:00 +23°C° 0.2 mm 2 mps 640 mmHg 61%
18:00 +21°C° 0.2 mm 1 mps 640 mmHg 72%
19:00 +19°C° 0.2 mm 1 mps 639 mmHg 83%
20:00 +16°C° 0 mm 1 mps 639 mmHg 86%
21:00 +14°C° 0 mm 0 mps 638 mmHg 90%
22:00 +12°C° 0 mm 0 mps 638 mmHg 94%
23:00 +12°C° 0 mm 0 mps 638 mmHg 93%

Tomorrow, 8 August, Saturday

Time Temperature Precipitation Wind Pressure Humidity
00:00 +13°C° 0 mm 1 mps 638 mmHg 93%
01:00 +13°C° 0 mm 1 mps 638 mmHg 92%
02:00 +12°C° 0 mm 1 mps 638 mmHg 92%
03:00 +12°C° 0 mm 1 mps 638 mmHg 92%
04:00 +11°C° 0 mm 1 mps 637 mmHg 92%
05:00 +13°C° 0 mm 1 mps 638 mmHg 87%
06:00 +14°C° 0 mm 0 mps 639 mmHg 82%
07:00 +16°C° 0 mm 0 mps 640 mmHg 77%
08:00 +20°C° 0 mm 1 mps 640 mmHg 66%
09:00 +22°C° 0 mm 1 mps 641 mmHg 56%
10:00 +24°C° 0 mm 1 mps 641 mmHg 45%
11:00 +24°C° 0 mm 1 mps 641 mmHg 42%
12:00 +25°C° 0 mm 2 mps 641 mmHg 38%
13:00 +26°C° 0 mm 2 mps 641 mmHg 35%
14:00 +26°C° 0 mm 2 mps 641 mmHg 38%
15:00 +25°C° 0 mm 2 mps 641 mmHg 40%
16:00 +25°C° 0 mm 2 mps 641 mmHg 42%
17:00 +23°C° 0.1 mm 2 mps 640 mmHg 55%
18:00 +20°C° 0.1 mm 2 mps 640 mmHg 67%
19:00 +20°C° 0.1 mm 1 mps 639 mmHg 79%
20:00 +18°C° 0 mm 1 mps 639 mmHg 84%
21:00 +15°C° 0 mm 1 mps 638 mmHg 89%
22:00 +12°C° 0 mm 0 mps 638 mmHg 94%
23:00 +12°C° 0 mm 0 mps 637 mmHg 94%

Day after tomorrow, 9 August, Sunday

Time Temperature Precipitation Wind Pressure Humidity
00:00 +12°C° 0 mm 0 mps 637 mmHg 93%
01:00 +12°C° 0 mm 0 mps 637 mmHg 93%
02:00 +12°C° 0 mm 1 mps 637 mmHg 93%
03:00 +12°C° 0 mm 1 mps 637 mmHg 92%
04:00 +12°C° 0 mm 1 mps 636 mmHg 92%
05:00 +14°C° 0 mm 1 mps 637 mmHg 86%
06:00 +15°C° 0 mm 0 mps 638 mmHg 81%
07:00 +16°C° 0 mm 0 mps 639 mmHg 76%
08:00 +20°C° 0 mm 1 mps 639 mmHg 67%
09:00 +22°C° 0 mm 1 mps 639 mmHg 57%
10:00 +24°C° 0 mm 1 mps 640 mmHg 47%
11:00 +25°C° 0 mm 1 mps 640 mmHg 45%
12:00 +25°C° 0 mm 2 mps 640 mmHg 42%
13:00 +26°C° 0 mm 2 mps 640 mmHg 39%
14:00 +26°C° 0.2 mm 2 mps 639 mmHg 42%
15:00 +25°C° 0.2 mm 2 mps 639 mmHg 46%
16:00 +25°C° 0.2 mm 2 mps 639 mmHg 49%
17:00 +23°C° 0.6 mm 2 mps 638 mmHg 60%
18:00 +20°C° 0.6 mm 2 mps 637 mmHg 72%
19:00 +19°C° 0.6 mm 1 mps 637 mmHg 83%
20:00 +18°C° 0.1 mm 1 mps 636 mmHg 85%
21:00 +15°C° 0.1 mm 1 mps 636 mmHg 88%
22:00 +13°C° 0.1 mm 0 mps 636 mmHg 91%
23:00 +14°C° 0 mm 1 mps 636 mmHg 90%

10 August, Monday

Time Temperature Precipitation Wind Pressure Humidity
00:00 +14°C° 0 mm 1 mps 636 mmHg 89%
01:00 +14°C° 0 mm 1 mps 635 mmHg 88%
02:00 +13°C° 0 mm 1 mps 635 mmHg 88%
03:00 +13°C° 0 mm 1 mps 635 mmHg 87%
04:00 +13°C° 0 mm 1 mps 635 mmHg 87%
05:00 +14°C° 0 mm 1 mps 635 mmHg 83%
06:00 +16°C° 0 mm 1 mps 636 mmHg 80%
07:00 +19°C° 0 mm 1 mps 636 mmHg 76%
08:00 +21°C° 0 mm 1 mps 637 mmHg 66%
09:00 +23°C° 0 mm 1 mps 638 mmHg 57%
10:00 +25°C° 0 mm 1 mps 638 mmHg 48%
11:00 +25°C° 0.1 mm 1 mps 638 mmHg 45%
12:00 +26°C° 0.1 mm 1 mps 638 mmHg 41%
13:00 +27°C° 0.1 mm 1 mps 638 mmHg 38%
14:00 +26°C° 0.3 mm 2 mps 638 mmHg 42%
15:00 +26°C° 0.3 mm 2 mps 638 mmHg 45%
16:00 +25°C° 0.3 mm 2 mps 637 mmHg 49%
17:00 +23°C° 0.7 mm 2 mps 637 mmHg 59%
18:00 +21°C° 0.7 mm 1 mps 636 mmHg 70%
19:00 +20°C° 0.7 mm 1 mps 636 mmHg 80%
20:00 +18°C° 0.2 mm 1 mps 636 mmHg 82%
21:00 +16°C° 0.2 mm 1 mps 636 mmHg 84%
22:00 +14°C° 0.2 mm 0 mps 635 mmHg 86%
23:00 +14°C° 0 mm 1 mps 635 mmHg 85%

11 August, Tuesday

Time Temperature Precipitation Wind Pressure Humidity
00:00 +14°C° 0 mm 1 mps 635 mmHg 84%
01:00 +14°C° 0 mm 1 mps 635 mmHg 84%
02:00 +14°C° 0 mm 1 mps 635 mmHg 84%
03:00 +13°C° 0 mm 1 mps 635 mmHg 84%
04:00 +13°C° 0 mm 1 mps 635 mmHg 84%
05:00 +15°C° 0 mm 1 mps 636 mmHg 80%
06:00 +18°C° 0 mm 1 mps 636 mmHg 76%
07:00 +19°C° 0 mm 1 mps 637 mmHg 72%
08:00 +21°C° 0.1 mm 1 mps 637 mmHg 64%
09:00 +23°C° 0.1 mm 1 mps 638 mmHg 56%
10:00 +24°C° 0.1 mm 1 mps 639 mmHg 49%
11:00 +25°C° 0.4 mm 1 mps 639 mmHg 47%
12:00 +25°C° 0.4 mm 1 mps 639 mmHg 46%
13:00 +26°C° 0.4 mm 2 mps 639 mmHg 44%
14:00 +25°C° 0.7 mm 2 mps 638 mmHg 51%
15:00 +24°C° 0.7 mm 1 mps 638 mmHg 59%
16:00 +23°C° 0.7 mm 1 mps 638 mmHg 66%
17:00 +21°C° 1.4 mm 1 mps 637 mmHg 74%
18:00 +20°C° 1.4 mm 1 mps 637 mmHg 81%
19:00 +18°C° 1.4 mm 1 mps 636 mmHg 89%
20:00 +18°C° 0.8 mm 1 mps 636 mmHg 89%
21:00 +16°C° 0.8 mm 1 mps 636 mmHg 89%
22:00 +16°C° 0.8 mm 2 mps 636 mmHg 89%
23:00 +15°C° 0 mm 1 mps 636 mmHg 88%

12 August, Wednesday

Time Temperature Precipitation Wind Pressure Humidity
00:00 +15°C° 0 mm 1 mps 636 mmHg 88%
01:00 +14°C° 0 mm 1 mps 635 mmHg 87%
02:00 +14°C° 0 mm 1 mps 635 mmHg 87%
03:00 +13°C° 0 mm 1 mps 635 mmHg 86%
04:00 +13°C° 0 mm 1 mps 635 mmHg 86%
05:00 +15°C° 0 mm 1 mps 635 mmHg 82%
06:00 +16°C° 0 mm 1 mps 636 mmHg 78%
07:00 +17°C° 0 mm 0 mps 636 mmHg 74%
08:00 +18°C° 0.1 mm 0 mps 637 mmHg 68%
09:00 +22°C° 0.1 mm 1 mps 637 mmHg 63%
10:00 +24°C° 0.1 mm 1 mps 638 mmHg 57%
11:00 +24°C° 0.9 mm 1 mps 638 mmHg 57%
12:00 +24°C° 0.9 mm 1 mps 638 mmHg 58%
13:00 +24°C° 0.9 mm 1 mps 638 mmHg 59%
14:00 +23°C° 1.8 mm 1 mps 637 mmHg 64%
15:00 +23°C° 1.8 mm 1 mps 637 mmHg 70%
16:00 +22°C° 1.8 mm 1 mps 636 mmHg 76%
17:00 +21°C° 1.2 mm 1 mps 636 mmHg 80%
18:00 +20°C° 1.2 mm 1 mps 636 mmHg 83%
19:00 +19°C° 1.2 mm 1 mps 636 mmHg 87%
20:00 +18°C° 0.3 mm 1 mps 636 mmHg 87%
21:00 +16°C° 0.3 mm 1 mps 636 mmHg 87%
22:00 +15°C° 0.3 mm 1 mps 635 mmHg 87%
23:00 +15°C° 0 mm 1 mps 635 mmHg 87%
Show more